Location: Newark
(5.8900°S, 42.6378°W)
Time: 04:16:44
(UTC+00:00)

S-56A Canister/Altair - Visible Passes

Search period start: 19 September 2019 00:00
Search period end: 29 September 2019 00:00
Orbit: 633 x 2499 km, 38.9° (Epoch: 17 September)

Date Brightness Start Highest point End Pass type
(mag) Time Alt. Az. Time Alt. Az. Time Alt. Az.
19 Sep 10.8 08:21:59 10° SSW 08:29:32 25° SE 08:39:15 10° E visible
19 Sep 10.2 23:23:48 10° NW 23:24:38 14° NW 23:24:38 14° NW visible
20 Sep 10.8 07:50:00 10° S 07:56:20 20° SE 08:04:16 10° E visible
20 Sep 9.1 22:50:53 10° NW 22:54:11 30° NNW 22:54:11 30° NNW visible
21 Sep 10.9 07:18:19 10° S 07:23:10 15° SE 07:28:58 10° ESE visible
21 Sep 8.1 22:17:56 10° NNW 22:23:48 45° NNE 22:23:48 45° NNE visible
22 Sep 11.0 06:47:27 10° SSE 06:50:02 11° SE 06:52:53 10° SE visible
22 Sep 8.4 21:44:57 10° NNW 21:51:29 38° NE 21:53:28 29° ENE visible
22 Sep 10.6 23:50:55 10° W 23:50:56 10° W 23:50:56 10° W visible
23 Sep 10.3 08:13:58 10° SSW 08:22:21 45° SE 08:34:19 10° ENE visible
23 Sep 8.9 21:11:57 10° NNW 21:18:42 32° NE 21:23:10 12° E visible
23 Sep 9.6 23:17:26 10° WNW 23:20:39 25° W 23:20:39 25° W visible
24 Sep 10.4 07:41:43 10° SSW 07:49:18 37° SE 08:00:01 10° ENE visible
24 Sep 8.5 22:43:59 10° WNW 22:50:06 42° SW 22:50:23 42° SW visible
25 Sep 10.5 07:09:35 10° SSW 07:16:18 30° SE 07:25:37 10° E visible
25 Sep 8.3 22:10:33 10° WNW 22:17:32 56° SW 22:20:08 29° SSE visible
26 Sep 10.5 06:37:36 10° S 06:43:23 24° SE 06:51:04 10° E visible
26 Sep 8.2 21:37:06 10° NW 21:44:55 73° SW 21:49:53 12° SE visible
27 Sep 10.5 06:06:26 12° S 06:10:31 18° SE 06:16:21 10° E visible
27 Sep 9.2 08:06:47 10° SW 08:14:57 84° SE 08:27:28 10° NE visible
27 Sep 8.2 21:03:38 10° NW 21:12:14 89° SW 21:17:55 10° SE visible
27 Sep 10.2 23:14:15 10° WSW 23:15:51 11° SW 23:17:07 10° SSW visible
28 Sep 10.6 05:36:03 12° SSE 05:37:40 13° SE 05:41:15 10° ESE visible
28 Sep 9.2 07:34:21 10° SW 07:41:56 72° SE 07:53:36 10° NE visible
28 Sep 10.1 22:39:22 10° WSW 22:43:11 16° SW 22:46:25 10° S visible
